#timestamp,LO_Frequency,Hit,StdDev 
1570345215.2,286047007.9,N
1570345235.0,286047008.7,N
1570345235.9,286047008.7,N
1570345255.8,286047012.1,N
1570345275.6,286047015.8,N
1570345295.4,286047014.1,N
1570345315.3,286047017.1,N
1570345335.1,286047011.4,N
1570345355.9,286047011.7,N
1570345375.7,286047017.1,N
1570345395.5,286047013.4,N
1570345415.4,286047013.9,N
1570345435.2,286047014.9,N
1570345455.0,286047017.6,Y
1570345455.9,286047017.6,P
1570345475.8,286047004.8,N
1570345495.6,286047000.2,N
1570345515.5,286047000.3,N
1570345535.3,286047000.5,N
1570345555.1,286047002.6,N
1570345575.9,286047002.5,N
1570345595.7,286047002.0,N
1570345615.6,286047006.8,N
1570345635.4,286047006.0,N
1570345655.2,286047006.7,N
1570345675.1,286047008.1,N
1570345676.0,286047008.1,N
1570345695.8,286047010.0,N
1570345715.6,286047009.0,N
1570345735.5,286047012.2,N
1570345755.3,286047007.7,N
1570345775.2,286047007.3,N
1570345795.9,286047010.9,N
1570345815.7,286047010.5,N
1570345835.6,286047010.5,N
1570345855.4,286047009.6,N
1570345875.3,286047016.9,Y
1570345895.1,286047010.4,P
1570345896.0,286047010.4,P
1570345915.8,286047007.7,P
1570345935.7,286047011.7,Y
1570345955.5,286047007.8,P
1570345975.3,286047010.8,P
1570345995.2,286047011.9,P
1570346015.0,286047010.4,Y
1570346015.9,286047010.4,P
1570346035.8,286046996.9,P
1570346055.6,286046993.3,N
1570346075.4,286046992.4,N
1570346095.3,286046993.6,N
1570346115.1,286046996.4,N
1570346135.9,286046989.8,N
1570346155.7,286046992.9,N
1570346175.5,286046988.9,N
1570346195.4,286046991.1,N
1570346215.2,286046988.1,N
1570346235.0,286046982.2,N
1570346235.9,286046982.2,N
1570346255.8,286046984.5,N
1570346275.6,286046983.6,N
1570346295.5,286046986.7,N
1570346315.3,286046991.6,N
1570346335.1,286046988.7,N
1570346355.9,286046989.2,N
1570346375.7,286046991.7,N
1570346395.6,286046996.4,N
1570346415.4,286046991.7,N
1570346435.2,286046989.3,N
1570346455.1,286046987.1,N
1570346456.0,286046987.1,N
1570346475.8,286046989.7,N
1570346495.7,286046983.9,N
1570346515.5,286046985.5,N
1570346535.3,286046989.7,N
1570346555.2,286046993.4,N
1570346575.9,286047000.7,N
1570346595.7,286046994.4,N
1570346615.6,286046992.0,N
1570346635.4,286046992.7,N
1570346655.2,286046990.7,N
1570346675.1,286046989.3,N
1570346676.0,286046989.3,N
1570346695.8,286046989.8,N
1570346715.7,286046985.9,Y
1570346735.5,286046996.6,P
1570346755.3,286047001.3,N
1570346775.2,286047003.4,N
1570346795.0,286047018.8,Y
1570346795.9,286047018.8,P
1570346815.8,286047011.8,N
1570346835.6,286047008.1,N
1570346855.5,286047006.1,N
1570346875.3,286047006.1,N
1570346895.3,286047010.3,N
1570346915.1,286047012.3,N
1570346935.9,286047013.5,N
1570346955.7,286047011.1,N
1570346975.5,286047009.0,N
1570346995.4,286047008.1,N
1570347015.2,286047008.5,N
1570347035.1,286047005.3,N
1570347036.0,286047005.3,N
1570347055.8,286047000.1,N
1570347075.6,286046998.7,N
1570347095.5,286046998.1,N
1570347115.3,286046999.4,N
1570347135.2,286046995.5,N
1570347155.9,286046994.1,N
1570347175.7,286046990.4,N
1570347195.6,286046989.2,N
1570347215.4,286046991.4,N
1570347235.2,286046990.3,N
1570347255.1,286046990.5,N
1570347256.0,286046990.5,N
1570347275.8,286046989.0,N
1570347295.7,286046987.5,N
1570347315.5,286046987.9,N
1570347335.3,286046990.8,N
1570347355.2,286046996.2,N
1570347375.0,286046996.2,N
1570347375.9,286046996.2,N
1570347395.8,286046999.8,N
1570347415.6,286046997.4,N
1570347435.4,286046989.2,N
1570347455.3,286046981.3,N
1570347475.1,286046975.8,Y
1570347495.9,286046977.9,P
1570347515.7,286046981.9,N
1570347535.5,286046977.7,N
1570347555.4,286046974.8,Y
1570347575.2,286046989.3,P
1570347595.0,286046985.6,P
1570347595.9,286046985.6,P
1570347615.8,286046986.7,Y
1570347635.6,286047005.9,P
1570347655.5,286047006.9,N
1570347675.3,286047010.6,N
1570347695.1,286047006.6,N
1570347715.9,286047005.9,N
1570347735.7,286046999.8,N
1570347755.5,286046998.0,N
1570347775.4,286046989.4,N
1570347795.2,286046984.0,N
1570347815.1,286046982.4,N
1570347816.0,286046982.4,N
1570347835.8,286046981.3,N
1570347855.6,286046982.0,N
1570347875.5,286046971.4,N
1570347895.3,286046970.1,N
1570347915.1,286046970.2,N
1570347935.9,286046966.7,N
1570347955.7,286046967.5,N
1570347975.6,286046972.0,N
1570347995.4,286046969.8,N
1570348015.2,286046971.9,N
1570348035.1,286046976.8,N
1570348036.0,286046976.8,N
1570348055.8,286046980.6,N
1570348075.7,286046992.7,N
1570348095.5,286046996.3,N
1570348115.3,286047002.7,N
1570348135.2,286047006.8,N
1570348155.0,286047013.8,N
1570348155.9,286047013.8,N
1570348175.7,286047011.2,N
1570348195.6,286047009.4,N
1570348215.4,286047011.1,N
1570348235.3,286047010.6,N
1570348255.1,286047010.4,N
1570348275.8,286047008.6,N
1570348295.7,286047007.9,N
1570348315.5,286047008.4,N
1570348335.4,286047010.8,N
1570348355.2,286047011.8,N
1570348375.0,286047013.7,N
1570348375.9,286047013.7,N
1570348395.8,286047006.1,N
1570348415.6,286047002.7,N
1570348435.5,286047002.1,N
1570348455.3,286046997.2,N
1570348475.1,286046993.6,N
1570348495.9,286046987.1,N
1570348515.7,286046983.1,N
1570348535.5,286046977.6,N
1570348555.4,286046973.8,N
1570348575.2,286046971.4,N
1570348595.1,286046966.1,N
1570348596.0,286046966.1,N
1570348615.8,286046968.5,N
1570348635.6,286046966.7,N
1570348655.5,286046967.1,N
1570348675.3,286046966.7,N
1570348695.1,286046962.1,N
1570348715.9,286046959.6,N
1570348735.7,286046959.8,N
1570348755.6,286046967.6,N
1570348775.4,286046968.3,N
1570348795.2,286046971.4,N
